When you browse on this site, cookies collect data to enhance your experience and personalize the content and advertising you see.
Visit our Privacy Policy to learn more. By continuing to use the site, you agree to this use of cookies and data.
  • In Germany
  • List of Countries
  • For 7 days
  • Water Temperature
  • Weather Map
  • Weather Widgets
  • user-avatar
    Login

    Hourly Weather Ganja

    Today, 18 August, Sunday

    Time Temperature Precipitation Wind Pressure Humidity
    00:00 +25°C° 0 mm 2 mps 723 mmHg 47%
    01:00 +25°C° 0 mm 2 mps 723 mmHg 49%
    02:00 +24°C° 0 mm 1 mps 723 mmHg 52%
    03:00 +23°C° 0 mm 1 mps 723 mmHg 53%
    04:00 +23°C° 0 mm 1 mps 723 mmHg 54%
    05:00 +23°C° 0 mm 1 mps 723 mmHg 55%
    06:00 +24°C° 0 mm 1 mps 723 mmHg 55%
    07:00 +25°C° 0 mm 1 mps 723 mmHg 49%
    08:00 +27°C° 0 mm 2 mps 723 mmHg 43%
    09:00 +30°C° 0 mm 2 mps 723 mmHg 36%
    10:00 +31°C° 0 mm 3 mps 723 mmHg 30%
    11:00 +34°C° 0 mm 4 mps 723 mmHg 25%
    12:00 +36°C° 0 mm 5 mps 723 mmHg 20%
    13:00 +36°C° 0 mm 5 mps 723 mmHg 20%
    14:00 +37°C° 0 mm 5 mps 722 mmHg 19%
    15:00 +38°C° 0 mm 6 mps 722 mmHg 19%
    16:00 +36°C° 0 mm 5 mps 722 mmHg 21%
    17:00 +35°C° 0 mm 5 mps 723 mmHg 23%
    18:00 +34°C° 0 mm 5 mps 723 mmHg 25%
    19:00 +33°C° 0 mm 4 mps 723 mmHg 27%
    20:00 +30°C° 0 mm 4 mps 723 mmHg 29%
    21:00 +28°C° 0 mm 4 mps 724 mmHg 30%
    22:00 +28°C° 0 mm 3 mps 724 mmHg 32%
    23:00 +27°C° 0 mm 2 mps 724 mmHg 33%

    Tomorrow, 19 August, Monday

    Time Temperature Precipitation Wind Pressure Humidity
    00:00 +26°C° 0 mm 2 mps 724 mmHg 34%
    01:00 +25°C° 0 mm 2 mps 724 mmHg 36%
    02:00 +25°C° 0 mm 1 mps 724 mmHg 37%
    03:00 +24°C° 0 mm 1 mps 724 mmHg 38%
    04:00 +24°C° 0 mm 1 mps 725 mmHg 39%
    05:00 +24°C° 0 mm 1 mps 725 mmHg 39%
    06:00 +24°C° 0 mm 1 mps 725 mmHg 40%
    07:00 +26°C° 0 mm 1 mps 725 mmHg 36%
    08:00 +28°C° 0 mm 1 mps 725 mmHg 32%
    09:00 +30°C° 0 mm 2 mps 726 mmHg 28%
    10:00 +33°C° 0 mm 3 mps 726 mmHg 25%
    11:00 +35°C° 0 mm 3 mps 726 mmHg 22%
    12:00 +36°C° 0 mm 4 mps 726 mmHg 19%
    13:00 +37°C° 0 mm 5 mps 726 mmHg 18%
    14:00 +39°C° 0 mm 5 mps 726 mmHg 16%
    15:00 +40°C° 0 mm 6 mps 725 mmHg 15%
    16:00 +39°C° 0 mm 5 mps 726 mmHg 17%
    17:00 +36°C° 0 mm 5 mps 726 mmHg 19%
    18:00 +35°C° 0 mm 4 mps 726 mmHg 21%
    19:00 +34°C° 0 mm 4 mps 726 mmHg 23%
    20:00 +32°C° 0 mm 4 mps 727 mmHg 24%
    21:00 +29°C° 0 mm 5 mps 727 mmHg 25%
    22:00 +29°C° 0 mm 4 mps 727 mmHg 26%
    23:00 +28°C° 0 mm 3 mps 727 mmHg 27%

    Day after tomorrow, 20 August, Tuesday

    Time Temperature Precipitation Wind Pressure Humidity
    00:00 +27°C° 0 mm 2 mps 727 mmHg 29%
    01:00 +26°C° 0 mm 2 mps 727 mmHg 30%
    02:00 +25°C° 0 mm 2 mps 727 mmHg 31%
    03:00 +24°C° 0 mm 1 mps 727 mmHg 33%
    04:00 +24°C° 0 mm 1 mps 728 mmHg 34%
    05:00 +24°C° 0 mm 1 mps 728 mmHg 34%
    06:00 +24°C° 0 mm 1 mps 728 mmHg 35%
    07:00 +26°C° 0 mm 1 mps 728 mmHg 31%
    08:00 +28°C° 0 mm 1 mps 728 mmHg 28%
    09:00 +30°C° 0 mm 2 mps 728 mmHg 24%
    10:00 +32°C° 0 mm 2 mps 728 mmHg 22%
    11:00 +35°C° 0 mm 3 mps 728 mmHg 19%
    12:00 +36°C° 0 mm 3 mps 727 mmHg 17%
    13:00 +37°C° 0 mm 4 mps 727 mmHg 15%
    14:00 +38°C° 0 mm 4 mps 727 mmHg 13%
    15:00 +40°C° 0 mm 5 mps 726 mmHg 11%
    16:00 +38°C° 0 mm 4 mps 726 mmHg 13%
    17:00 +37°C° 0 mm 4 mps 726 mmHg 14%
    18:00 +36°C° 0 mm 3 mps 726 mmHg 16%
    19:00 +34°C° 0 mm 4 mps 726 mmHg 17%
    20:00 +32°C° 0 mm 4 mps 727 mmHg 19%
    21:00 +29°C° 0 mm 5 mps 727 mmHg 20%
    22:00 +28°C° 0 mm 4 mps 727 mmHg 23%
    23:00 +27°C° 0 mm 3 mps 727 mmHg 26%

    21 August, Wednesday

    Time Temperature Precipitation Wind Pressure Humidity
    00:00 +26°C° 0 mm 3 mps 727 mmHg 29%
    01:00 +25°C° 0 mm 2 mps 727 mmHg 31%
    02:00 +24°C° 0 mm 2 mps 727 mmHg 33%
    03:00 +23°C° 0 mm 1 mps 727 mmHg 35%
    04:00 +24°C° 0 mm 1 mps 727 mmHg 35%
    05:00 +24°C° 0 mm 1 mps 727 mmHg 34%
    06:00 +24°C° 0 mm 1 mps 727 mmHg 34%
    07:00 +26°C° 0 mm 1 mps 727 mmHg 31%
    08:00 +28°C° 0 mm 2 mps 727 mmHg 29%
    09:00 +30°C° 0 mm 2 mps 727 mmHg 26%
    10:00 +32°C° 0 mm 2 mps 727 mmHg 24%
    11:00 +34°C° 0 mm 3 mps 726 mmHg 21%
    12:00 +36°C° 0 mm 4 mps 726 mmHg 18%
    13:00 +37°C° 0 mm 4 mps 726 mmHg 16%
    14:00 +38°C° 0 mm 4 mps 725 mmHg 15%
    15:00 +40°C° 0 mm 5 mps 725 mmHg 13%
    16:00 +38°C° 0 mm 4 mps 725 mmHg 15%
    17:00 +36°C° 0 mm 4 mps 725 mmHg 16%
    18:00 +35°C° 0 mm 4 mps 724 mmHg 18%
    19:00 +33°C° 0 mm 4 mps 725 mmHg 19%
    20:00 +32°C° 0 mm 4 mps 725 mmHg 21%
    21:00 +29°C° 0 mm 4 mps 725 mmHg 22%
    22:00 +28°C° 0 mm 3 mps 725 mmHg 25%
    23:00 +27°C° 0 mm 3 mps 725 mmHg 27%

    22 August, Thursday

    Time Temperature Precipitation Wind Pressure Humidity
    00:00 +26°C° 0 mm 3 mps 725 mmHg 29%
    01:00 +25°C° 0 mm 2 mps 725 mmHg 31%
    02:00 +24°C° 0 mm 2 mps 725 mmHg 33%
    03:00 +24°C° 0 mm 1 mps 724 mmHg 35%
    04:00 +24°C° 0 mm 1 mps 725 mmHg 35%
    05:00 +24°C° 0 mm 1 mps 725 mmHg 35%
    06:00 +24°C° 0 mm 1 mps 725 mmHg 34%
    07:00 +26°C° 0 mm 1 mps 725 mmHg 32%
    08:00 +28°C° 0 mm 2 mps 725 mmHg 29%
    09:00 +30°C° 0 mm 2 mps 725 mmHg 26%
    10:00 +33°C° 0 mm 3 mps 724 mmHg 23%
    11:00 +35°C° 0 mm 4 mps 724 mmHg 20%
    12:00 +37°C° 0 mm 5 mps 724 mmHg 17%
    13:00 +37°C° 0 mm 5 mps 723 mmHg 16%
    14:00 +39°C° 0 mm 6 mps 723 mmHg 15%
    15:00 +40°C° 0 mm 6 mps 722 mmHg 14%
    16:00 +39°C° 0 mm 6 mps 722 mmHg 15%
    17:00 +37°C° 0 mm 5 mps 722 mmHg 17%
    18:00 +36°C° 0 mm 5 mps 722 mmHg 18%
    19:00 +34°C° 0 mm 5 mps 723 mmHg 19%
    20:00 +32°C° 0 mm 5 mps 723 mmHg 21%
    21:00 +29°C° 0 mm 6 mps 723 mmHg 22%
    22:00 +29°C° 0 mm 5 mps 723 mmHg 24%
    23:00 +28°C° 0 mm 4 mps 723 mmHg 26%

    23 August, Friday

    Time Temperature Precipitation Wind Pressure Humidity
    00:00 +27°C° 0 mm 4 mps 723 mmHg 27%
    01:00 +26°C° 0 mm 3 mps 723 mmHg 29%
    02:00 +25°C° 0 mm 3 mps 723 mmHg 30%
    03:00 +24°C° 0 mm 2 mps 723 mmHg 32%
    04:00 +24°C° 0 mm 2 mps 723 mmHg 32%
    05:00 +24°C° 0 mm 2 mps 724 mmHg 33%
    06:00 +24°C° 0 mm 2 mps 724 mmHg 34%
    07:00 +26°C° 0 mm 2 mps 724 mmHg 31%
    08:00 +29°C° 0 mm 2 mps 724 mmHg 28%
    09:00 +31°C° 0 mm 3 mps 724 mmHg 25%
    10:00 +34°C° 0 mm 4 mps 724 mmHg 23%
    11:00 +36°C° 0 mm 6 mps 723 mmHg 21%
    12:00 +39°C° 0 mm 7 mps 723 mmHg 19%
    13:00 +39°C° 0 mm 7 mps 723 mmHg 18%
    14:00 +39°C° 0 mm 8 mps 723 mmHg 18%
    15:00 +40°C° 0 mm 8 mps 722 mmHg 18%
    16:00 +39°C° 0 mm 7 mps 722 mmHg 19%
    17:00 +38°C° 0 mm 6 mps 722 mmHg 21%
    18:00 +36°C° 0 mm 5 mps 722 mmHg 23%
    19:00 +34°C° 0 mm 5 mps 723 mmHg 24%
    20:00 +32°C° 0 mm 5 mps 723 mmHg 26%
    21:00 +30°C° 0 mm 5 mps 723 mmHg 27%
    22:00 +29°C° 0 mm 4 mps 723 mmHg 28%
    23:00 +28°C° 0 mm 4 mps 723 mmHg 30%
    Show more